Regional Weather Roundup
Issued by NWS Little Rock, AR

Home | Current Version | Previous Version | Text Only | Print | Product List | Glossary On
Versions: 1 2 3 4 5 6 7 8 9 10 11 12 13 14 15 16 17 18 19 20 21 22 23 24 25 26 27 28 29 30 31 32 33 34 35 36 37 38 39 40 41
000
ASUS44 KLZK 272305
RWRLZK

WEATHER ROUNDUP FOR ARKANSAS
NATIONAL WEATHER SERVICE LITTLE ROCK AR
500 PM CST SAT DEC 27 2014

NOTE: "FAIR" INDICATES FEW OR NO CLOUDS BELOW 12,000 FEET WITH NO
SIGNIFICANT WEATHER AND/OR OBSTRUCTIONS TO VISIBILITY.

ARZ001-003-010-029-280000-
NORTHWEST ARKANSAS

CITY           SKY/WX    TMP DP  RH WIND       PRES   REMARKS
FAYETTEVILLE   MIX PCPN  31  30  96 NW13      30.20R WCI  21
FORT SMITH     LGT RAIN  37  33  85 W10       30.23R
HARRISON       LGT RAIN  34  33  96 NW7       30.15F WCI  28
BENTONVILLE    CLOUDY    32  27  80 N9        30.22R WCI  24
ROGERS         CLOUDY    31  30  96 NW10      30.22R WCI  22
SILOAM SPGS    CLOUDY    30  25  80 N12       30.24R WCI  21
HIGHFILL       CLOUDY    31  28  89 N13       30.21R WCI  21
SPRINGDALE     CLOUDY    32  30  93 NW13      30.22R WCI  22
$$

ARZ004-005-016-280000-
NORTH CENTRAL ARKANSAS

CITY           SKY/WX    TMP DP  RH WIND       PRES   REMARKS
BATESVILLE     CLOUDY    43  39  87 NW8       30.16R
FLIPPIN        CLOUDY    37  32  81 NW8       30.18S
MTN HOME       RAIN      37  37 100 N6        30.15F FOG
$$

ARZ040-041-280000-
WEST CENTRAL ARKANSAS

CITY           SKY/WX    TMP DP  RH WIND       PRES   REMARKS
MENA           CLOUDY    41  37  87 E3        30.14F
MOUNT IDA      LGT RAIN  41  38  89 CALM      30.13F
$$

ARZ009-017-025-026-028-280000-
NORTHEAST ARKANSAS

CITY           SKY/WX    TMP DP  RH WIND       PRES   REMARKS
CORNING        LGT RAIN  46  45  93 NW13      30.15R
JONESBORO      CLOUDY    49  46  90 NW10      30.11R
NEWPORT        LGT RAIN  46  44  93 N14       30.14R
WALNUT RIDGE   CLOUDY    46  41  81 NW12      30.13R
BLYTHEVILLE    CLOUDY    51  51 100 N3        30.09S FOG
$$

ARZ022-023-033-042-044-280000-
CENTRAL ARKANSAS

CITY           SKY/WX    TMP DP  RH WIND       PRES   REMARKS
LITTLE ROCK    CLOUDY    47  41  80 N10       30.14R
N LITTLE ROCK  CLOUDY    44  43  95 NW9       30.14R
JACKSONVILLE   CLOUDY    46  43  90 NW8       30.14R
SEARCY         LGT RAIN  45  42  89 VRB7      30.15R
HOT SPRINGS    HVY RAIN  45  43  93 N6        30.16R FOG
RUSSELLVILLE   HVY RAIN  43  42  97 N3        30.15S FOG
CLINTON        LGT RAIN  41  37  87 N5        30.18R
$$

ARZ036-280000-
EAST ARKANSAS

CITY           SKY/WX    TMP DP  RH WIND       PRES   REMARKS
WEST MEMPHIS   CLOUDY    52  52 100 N5        30.07F FOG
$$

ARZ050-053-066-070-073-280000-
SOUTHWEST ARKANSAS

CITY           SKY/WX    TMP DP  RH WIND       PRES   REMARKS
ARKADELPHIA    LGT RAIN  48  48 100 NW8       30.16R
CAMDEN         CLOUDY    50  46  87 MISG      30.09R
TEXARKANA      CLOUDY    46  44  93 NW13      30.14R FOG
EL DORADO      CLOUDY    51  49  92 N9G18     30.06F
DE QUEEN       RAIN      44  42  93 VRB3      30.14S FOG
$$

ARZ056-057-069-280000-
SOUTHEAST ARKANSAS

CITY           SKY/WX    TMP DP  RH WIND       PRES   REMARKS
PINE BLUFF     LGT RAIN  48  44  86 N10       30.11R
STUTTGART      CLOUDY    48  43  81 N17       30.11R
MONTICELLO     LGT RAIN  53  51  93 N7        30.07S FOG

$$




USA.gov is the U.S. government's official web portal to all federal, state and local government web resources and services.